RH
59 56 54 53 51 49 46 45 44 42 39 37 38 39 39 39 39 40 40 40 40 40 42 44 47 51 56 59 59 60 63 65 62 55 49 48 48 49 54 56 52 47 47 55 59 52 46 46 45 42 40 42 47 66 96 110 106 105 108 107 110 109 105 104 103 101 103 101 96 98 103 104 105 107 107 108 108 108 108 109 109 106 103 103 106 105 104
55 53 51 49 46 43 41 39 38 36 34 31 30 30 31 32 33 35 36 37 38 39 40 42 44 47 51 55 56 58 62 63 60 56 52 51 52 53 56 58 56 53 50 52 62 64 56 52 52 48 45 45 41 43 64 89 98 102 106 107 107 107 104 104 103 101 104 102 95 98 106 108 107 108 108 106 105 106 105 102 107 110 106 103 104 103 103
49 47 44 42 40 37 35 34 32 32 31 28 26 24 24 26 28 29 29 30 33 35 37 40 41 42 45 48 50 52 56 58 58 56 53 52 53 55 56 56 56 57 55 50 55 65 66 60 56 54 50 46 45 42 46 61 77 90 101 106 105 105 107 108 105 102 104 104 99 99 105 107 105 105 107 107 104 103 101 97 101 107 105 104 104 102 101
44 42 40 38 37 35 33 31 30 30 29 27 25 22 21 22 24 25 26 26 28 29 31 34 36 38 42 43 45 48 51 54 57 57 54 53 53 54 54 56 57 59 60 55 50 57 70 73 65 58 55 50 47 46 43 47 59 74 90 103 107 106 105 106 104 102 103 103 101 102 104 104 103 103 105 106 102 95 89 86 89 92 93 95 99 102 105
42 40 39 38 37 36 34 32 31 30 29 27 24 22 20 20 21 22 23 24 25 25 26 29 30 33 37 40 44 48 49 52 56 56 54 53 53 53 53 56 59 61 63 63 55 50 63 81 80 67 58 54 52 50 47 45 49 59 70 83 97 105 105 104 104 102 101 102 103 102 100 99 101 105 106 101 93 85 78 74 73 75 79 83 86 92 100
42 41 41 40 40 40 38 36 34 32 30 27 24 22 19 18 18 19 20 21 22 23 24 25 27 29 31 34 40 45 48 51 54 55 54 54 54 54 54 55 61 65 66 67 64 55 54 71 85 80 67 59 56 55 53 48 49 58 59 56 65 83 96 100 102 102 103 104 104 101 96 91 90 95 101 99 91 82 72 64 60 62 70 78 81 85 91
45 44 44 44 43 42 41 39 36 34 31 26 22 21 19 18 17 17 18 19 19 21 22 22 24 26 27 29 33 38 42 48 53 55 57 57 57 56 56 57 61 67 71 72 72 66 56 57 72 83 79 70 63 60 59 54 51 56 59 52 48 57 70 76 78 85 91 95 102 105 101 96 91 84 81 82 78 67 54 45 42 44 51 59 63 66 68
48 47 47 46 45 44 43 41 38 35 32 27 22 20 18 17 16 16 16 17 17 18 19 19 21 23 24 27 30 33 36 41 48 52 56 59 61 61 61 61 63 70 77 80 80 77 67 58 59 70 79 82 77 69 65 62 59 57 59 57 52 53 59 63 63 68 72 74 85 94 92 91 87 71 56 55 54 49 45 44 42 40 41 46 49 51 53
51 51 51 49 47 46 45 44 40 36 32 28 23 20 17 16 15 15 15 15 16 17 16 17 18 19 21 25 27 29 32 35 40 45 50 55 60 64 67 67 69 75 81 86 88 86 80 69 60 61 73 85 91 86 77 70 66 64 61 58 56 55 57 60 60 60 61 60 60 64 66 69 69 58 48 47 49 50 53 54 51 46 42 42 45 49 53
55 54 54 52 50 49 48 47 44 38 33 28 24 20 17 16 16 16 16 16 16 16 16 17 17 18 19 22 24 27 30 31 34 39 43 48 53 59 64 65 66 72 78 83 89 91 87 79 67 61 65 75 84 91 92 86 77 72 68 64 62 59 56 56 55 53 54 54 51 50 50 51 53 52 51 51 51 51 52 51 49 46 43 41 40 42 44
57 56 57 56 53 51 49 48 46 41 36 30 25 21 17 17 18 18 18 18 18 18 18 17 17 17 17 19 22 25 28 30 34 37 40 44 46 50 54 56 57 62 68 73 79 84 84 78 69 61 59 64 71 81 92 98 96 91 84 77 72 67 61 56 55 53 53 55 56 56 51 49 53 58 61 62 60 57 53 48 45 44 44 44 43 43 42
57 57 58 57 55 53 51 49 47 44 38 32 27 22 19 19 21 22 22 21 20 20 19 18 17 16 16 17 20 22 25 30 35 38 40 42 44 45 47 49 51 54 59 66 72 77 79 76 71 65 59 58 63 71 80 90 99 104 103 97 89 83 77 72 66 65 64 62 63 63 60 62 69 74 74 74 72 69 65 62 58 55 53 51 49 47 45
56 56 56 56 56 55 53 51 50 47 43 38 31 26 22 20 22 25 25 24 23 22 21 20 19 18 17 17 19 21 24 29 35 39 42 45 46 46 46 47 48 49 52 58 65 71 76 77 76 73 66 60 60 63 67 72 80 91 101 107 105 101 98 95 91 89 88 85 82 79 75 76 81 83 82 82 83 84 84 84 82 77 73 69 64 60 57
55 55 54 54 54 54 54 53 52 50 48 45 39 32 26 22 22 25 26 26 25 24 23 22 21 21 20 19 20 21 23 28 34 37 41 45 48 51 51 51 51 51 51 54 56 60 67 72 74 74 71 67 64 63 63 64 69 78 90 101 107 107 106 106 107 106 106 105 102 96 91 90 93 96 97 97 98 100 100 101 100 98 96 94 90 87 84
57 56 55 54 53 53 53 53 52 51 50 49 45 39 33 27 23 24 26 28 28 27 26 25 24 23 22 21 21 22 23 26 32 36 39 41 45 49 51 52 52 53 52 53 54 55 58 62 67 70 70 70 69 68 68 68 71 76 85 95 103 107 109 109 109 108 108 108 108 105 101 101 103 106 105 105 107 108 109 109 108 106 107 107 106 107 104
60 59 57 56 55 53 53 52 52 52 51 50 49 46 42 36 29 25 25 27 29 29 29 28 27 26 25 23 23 23 23 25 29 34 39 41 44 46 47 49 50 50 51 52 53 53 54 56 60 64 67 69 70 70 70 72 72 73 77 85 92 99 103 105 105 105 106 106 106 105 104 104 104 105 104 105 107 108 107 106 104 103 106 108 108 108 104
63 63 62 61 59 57 55 53 52 52 52 51 51 50 49 47 42 35 30 27 28 30 30 30 30 30 29 27 26 25 25 25 27 31 36 40 43 44 45 46 47 47 49 51 51 52 52 53 55 59 62 64 67 68 69 71 73 74 75 79 83 88 92 96 99 102 105 107 106 105 104 102 101 102 103 102 103 104 103 102 100 101 106 108 105 104 102
65 66 65 65 64 62 60 58 55 54 53 53 52 51 51 51 50 46 41 36 31 30 30 31 32 32 32 32 30 29 28 27 27 30 33 37 41 43 45 46 45 46 48 50 51 53 53 53 53 56 58 59 61 63 64 66 68 71 73 77 79 80 82 83 86 89 94 100 105 108 108 106 104 104 102 100 101 102 101 100 100 101 104 104 101 101 101
70 70 69 67 66 66 64 63 60 58 56 55 54 53 52 51 51 51 50 48 43 39 35 33 32 33 33 33 34 33 32 30 29 29 30 33 36 40 43 45 44 44 45 47 49 51 53 54 54 54 55 57 58 60 61 62 63 64 67 70 73 74 74 72 72 73 75 80 85 91 97 101 105 108 106 104 105 105 101 101 101 101 103 103 101 100 98
75 75 73 70 68 67 67 66 65 63 60 58 57 57 57 56 55 54 53 52 51 50 49 45 41 38 35 34 34 34 34 34 34 32 31 31 32 35 38 42 44 44 45 46 46 47 49 51 52 53 54 54 55 57 58 58 60 60 62 63 65 67 69 68 67 66 66 67 68 70 74 78 85 93 97 98 100 100 97 98 100 101 103 104 103 101 99
77 77 75 69 66 66 66 67 67 65 64 62 61 60 60 60 61 60 57 55 53 53 53 53 52 50 47 43 39 36 34 34 34 34 34 33 33 33 34 36 38 41 43 44 45 46 47 47 48 49 51 51 52 54 55 56 57 57 58 59 60 61 63 65 65 64 63 62 61 61 63 63 65 71 76 77 78 79 80 81 83 86 89 93 95 96 95
79 78 74 68 64 63 63 65 66 66 66 65 64 64 63 63 63 63 64 62 59 55 53 51 52 53 53 53 50 47 43 39 35 34 34 34 34 35 35 35 35 35 37 39 41 43 45 45 45 45 46 46 48 50 51 52 54 55 55 56 57 58 59 60 60 60 60 60 58 57 57 58 58 59 61 63 63 64 65 65 66 67 68 70 72 75 77
82 79 74 69 65 63 63 63 65 66 67 67 67 67 67 65 65 65 66 65 63 61 59 56 55 54 54 54 54 54 53 50 45 40 37 34 33 33 33 34 35 35 35 35 36 37 39 40 42 43 43 43 44 46 47 48 49 50 52 53 54 55 56 57 58 58 57 57 57 56 55 54 54 53 54 54 56 56 57 57 56 56 57 57 57 58 58
85 81 75 69 66 65 64 65 66 66 67 67 68 69 68 67 67 67 66 65 64 64 64 64 63 63 61 59 57 55 55 55 54 51 47 43 40 36 34 32 32 33 34 35 35 35 35 35 36 37 38 39 41 42 44 46 47 47 48 49 50 50 51 52 53 53 54 54 54 54 54 54 52 52 51 51 51 52 53 54 53 52 52 53 54 54 55
90 85 77 72 69 67 66 66 68 69 69 68 69 70 70 70 69 68 67 66 65 66 66 67 67 67 67 66 64 61 59 57 55 54 53 51 49 46 43 39 35 33 32 32 32 33 34 34 34 35 35 35 35 37 38 40 43 44 45 46 46 46 46 46 46 46 47 48 49 49 51 51 50 50 49 49 49 50 51 52 53 53 53 52 52 52 52
90 85 79 75 73 71 68 69 71 74 74 73 72 73 73 73 72 70 68 67 66 67 68 68 68 67 67 68 68 67 65 62 58 55 54 52 51 51 50 49 46 42 38 34 32 30 30 31 32 33 34 34 34 35 35 35 35 36 37 38 38 39 40 40 41 42 42 43 45 46 48 49 48 48 49 48 48 49 49 49 49 50 50 49 48 47 45
82 78 76 78 77 74 72 72 74 76 76 76 76 75 76 76 76 75 73 71 71 70 70 69 70 69 67 67 67 67 67 65 63 61 58 55 52 50 50 51 51 50 48 44 39 36 33 31 30 30 30 31 33 34 34 34 34 34 34 33 33 34 34 35 35 36 37 37 39 41 43 44 44 44 44 44 43 42 42 42 42 43 43 44 44 43 42
78 74 75 79 79 76 75 77 79 80 80 80 79 78 77 78 79 79 77 75 74 73 70 68 69 70 70 69 69 68 67 66 65 64 63 60 57 53 50 50 51 52 51 50 48 45 42 38 35 33 31 30 30 31 31 32 33 33 33 34 34 35 36 36 37 37 36 35 35 34 35 35 35 34 34 33 33 33 32 33 33 34 34 35 35 35 34
78 76 79 81 79 77 79 82 84 86 88 88 87 86 85 84 83 83 82 80 78 78 74 70 67 67 69 70 70 70 69 66 64 63 63 62 62 59 56 53 52 52 51 50 48 48 47 46 44 41 38 36 34 32 30 29 29 30 31 32 32 33 34 34 35 35 35 34 34 33 33 32 32 32 32 31 31 31 31 31 32 32 31 31 30 29 29
78 77 79 81 79 79 82 84 86 88 91 93 95 96 97 97 96 94 92 90 86 84 81 76 70 67 67 68 69 70 70 68 64 61 60 60 60 60 60 57 55 55 55 53 50 47 47 48 48 47 45 44 43 40 36 33 31 30 29 29 28 28 28 29 29 30 31 31 32 32 33 34 34 34 34 33 33 32 33 33 32 32 32 31 31 30 30
75 73 75 80 83 86 88 89 89 91 92 93 96 99 101 102 102 100 96 93 89 85 83 80 76 73 71 71 72 71 71 70 67 62 59 57 56 56 57 57 57 57 58 58 55 51 48 47 49 49 48 49 49 47 44 41 38 35 32 31 30 28 27 26 26 27 27 27 28 29 30 31 32 32 32 32 31 31 31 31 31 30 30 29 29 29 28
72 72 77 83 88 92 95 95 93 92 91 92 94 97 100 101 102 99 96 93 90 88 84 82 81 80 78 78 78 77 74 73 71 67 63 60 58 56 56 57 57 56 57 57 56 54 50 48 47 49 50 52 53 52 49 46 43 40 38 37 35 33 31 30 28 27 26 25 24 24 24 24 25 26 27 27 28 29 29 29 29 29 29 29 29 28 28
72 75 81 86 90 93 97 100 98 94 91 90 91 93 96 100 102 102 98 93 90 88 86 84 83 84 84 84 84 82 79 77 74 69 65 64 62 59 57 58 59 58 57 57 57 55 53 49 46 46 48 50 54 55 54 52 49 46 45 43 41 38 36 35 34 32 30 28 26 24 23 22 21 21 22 22 22 23 24 24 25 26 26 27 27 27 27
78 82 87 93 97 97 96 99 101 99 94 92 92 94 96 99 101 101 99 94 90 89 88 86 85 86 86 88 88 85 82 80 77 71 66 64 63 60 58 57 59 60 58 57 57 57 56 53 49 46 46 47 50 53 53 51 50 50 51 50 48 46 44 42 40 38 36 34 32 29 27 26 24 23 22 21 20 20 19 19 19 20 20 21 22 22 23
85 90 95 100 102 99 94 95 100 101 99 96 95 96 97 98 97 97 95 92 90 91 90 87 85 85 87 90 91 86 82 81 78 73 67 64 62 61 59 59 59 60 59 58 58 58 58 56 53 49 47 46 47 49 49 46 45 46 48 49 47 47 47 46 45 43 41 39 37 34 31 29 28 26 24 22 21 19 18 17 16 16 16 16 17 19 20
92 96 100 102 102 99 95 95 98 100 100 98 96 96 96 93 91 92 93 93 91 91 89 86 85 85 87 90 90 85 81 79 76 72 68 65 62 59 59 60 62 62 61 60 60 60 59 57 56 53 50 48 48 48 45 43 41 43 46 47 45 44 45 45 45 45 44 42 41 39 36 34 31 28 26 23 21 20 18 17 16 15 15 15 15 16 17
95 99 101 101 101 99 97 97 98 100 101 100 97 96 94 89 87 90 94 95 93 90 87 85 85 83 83 85 85 81 77 75 72 69 67 68 66 61 58 59 62 63 62 62 63 64 63 61 59 57 54 52 52 51 46 42 39 40 44 46 45 44 44 44 46 47 47 47 47 45 42 39 35 31 28 25 22 20 18 16 15 14 14 14 15 15 16
97 102 104 103 101 101 100 99 98 99 100 99 98 96 91 86 87 92 96 96 94 92 89 86 83 80 77 77 77 74 70 68 67 65 64 65 66 63 60 60 62 63 62 62 62 64 64 62 60 58 55 53 53 53 49 44 40 38 40 42 42 42 42 43 43 45 46 47 47 46 44 41 38 35 32 29 26 22 19 17 15 14 14 14 14 15 16
99 106 107 105 102 101 99 96 94 96 97 97 97 94 89 86 90 96 97 96 95 94 92 88 82 77 74 71 69 67 63 61 60 59 59 62 62 61 60 62 64 65 66 63 61 61 63 62 59 56 52 50 52 52 50 46 41 38 37 39 39 39 39 41 41 42 43 44 45 46 46 44 42 39 35 32 29 25 21 18 16 14 14 14 14 16 17
104 109 109 106 102 98 93 90 91 93 95 96 96 92 89 90 95 98 97 97 97 98 95 87 79 74 70 67 63 61 58 57 55 53 54 57 58 57 59 62 65 67 68 66 63 62 62 62 59 55 49 47 48 49 48 45 41 37 36 36 37 36 36 38 39 40 41 42 43 45 46 46 44 40 37 34 30 26 22 18 17 15 14 14 16 17 19
110 110 108 102 96 90 86 85 88 92 95 99 98 95 93 95 97 97 98 101 103 101 93 81 73 69 66 61 58 56 55 55 53 49 48 50 52 53 56 60 63 65 67 68 67 65 62 60 57 54 49 47 47 48 46 44 40 36 34 34 34 33 33 34 35 37 39 40 42 43 45 45 44 42 39 35 31 27 23 19 17 16 15 15 17 19 21
113 110 104 94 86 82 81 84 89 96 101 104 101 98 97 97 96 97 102 106 106 101 88 73 67 66 62 56 53 54 55 55 53 47 44 45 48 51 54 58 60 62 65 67 68 66 62 59 55 51 48 47 48 48 46 43 40 36 34 34 34 33 31 31 32 34 36 38 40 41 42 44 44 42 40 37 33 28 24 21 18 16 16 16 18 20 22
106 102 95 87 84 83 85 88 95 101 106 108 105 100 97 94 95 101 107 108 105 97 83 69 62 60 56 51 50 52 54 55 53 48 44 44 46 49 52 54 56 59 62 65 64 63 61 59 54 50 48 48 46 45 44 42 39 36 35 35 36 34 32 31 30 31 34 36 38 40 40 41 42 42 41 39 35 31 27 23 20 17 17 18 20 21 23
96 93 88 86 89 91 93 98 102 105 107 109 107 100 93 91 96 105 109 107 102 93 80 67 59 56 53 51 50 52 54 54 52 48 47 47 50 52 53 54 55 58 62 63 62 60 60 57 52 47 47 47 44 42 42 41 38 35 34 35 36 35 33 31 30 31 32 33 35 37 38 38 40 42 42 40 36 33 29 26 22 19 18 20 22 24 26
94 92 90 91 97 101 104 106 105 104 106 109 106 96 90 92 100 106 106 101 97 91 79 65 55 51 51 52 53 55 58 57 54 51 50 51 54 55 56 56 57 59 61 60 56 54 56 55 49 45 45 44 41 40 41 40 38 36 34 35 36 35 33 31 31 31 31 32 33 35 37 38 39 41 42 41 38 36 33 28 24 21 20 21 23 26 29
95 94 93 95 101 106 107 105 102 101 105 106 100 92 89 93 100 104 101 97 95 91 80 66 54 48 48 51 53 56 60 61 61 59 58 59 60 59 57 57 58 61 63 60 54 51 52 53 48 45 44 43 40 40 41 42 41 37 35 35 36 35 34 32 31 31 31 31 32 35 37 38 39 40 42 42 41 39 35 32 27 23 21 22 23 26 30
98 94 93 98 102 103 101 98 96 98 100 100 95 90 89 92 97 101 100 98 97 93 84 71 58 49 46 49 53 56 59 62 65 65 67 70 71 68 64 61 62 64 65 63 55 50 50 50 48 46 46 45 43 42 42 43 43 40 36 35 36 36 35 33 32 31 31 31 32 34 36 37 38 40 42 44 44 41 38 35 31 26 23 23 24 27 30
100 95 96 101 102 100 96 92 92 94 95 94 91 88 87 91 96 99 98 97 97 94 87 77 65 53 47 48 52 55 57 60 64 69 73 80 86 85 80 74 70 68 68 65 58 52 50 50 49 48 47 47 45 44 42 42 43 42 39 37 37 37 37 35 33 32 31 31 31 33 35 36 37 39 42 44 44 42 40 38 35 30 26 24 24 26 30
101 97 101 105 103 98 94 90 89 91 92 90 88 86 86 90 95 98 98 96 93 88 83 77 66 54 47 47 51 54 56 57 60 66 73 82 91 95 92 84 77 72 68 64 59 54 51 50 48 46 45 44 43 42 41 40 40 41 41 39 37 37 37 36 35 34 32 31 31 32 33 35 37 39 41 42 43 42 42 41 39 34 29 26 25 25 28
98 95 101 104 102 99 97 92 89 90 91 88 86 85 85 88 93 97 97 92 87 83 80 75 65 54 47 45 48 53 56 57 57 60 66 75 86 92 90 83 77 72 67 62 56 52 49 47 44 41 40 40 40 39 38 37 37 38 40 40 39 38 37 37 36 35 34 33 33 32 33 34 36 37 39 41 41 42 42 42 41 38 34 29 26 25 25
93 94 100 104 103 101 100 96 92 92 90 86 83 83 83 85 90 94 91 84 78 76 75 71 62 54 47 43 44 48 54 57 57 56 57 65 76 83 82 77 74 70 66 60 54 48 45 42 40 38 38 39 38 37 35 34 32 33 35 38 39 40 39 37 36 36 36 36 36 34 34 34 34 35 38 40 41 41 42 43 42 41 37 34 30 26 24
93 97 101 101 100 101 100 96 93 92 90 85 83 82 81 83 89 91 85 76 71 71 71 67 60 52 45 42 41 44 49 54 55 52 51 55 63 70 72 72 71 69 65 58 51 44 40 37 36 36 38 40 40 39 37 34 31 30 30 32 36 39 41 40 37 36 36 36 36 36 36 35 34 34 36 39 41 42 42 43 43 41 40 37 34 30 26
Wind_Speed
50 51 52 53 54 54 54 54 55 56 55 54 53 54 54 52 52 54 54 54 53 52 51 50 50 50 52 54 54 52 52 53 53 51 47 45 43 42 42 42 41 40 41 42 42 42 41 42 44 46 48 51 53 54 54 54 53 51 50 49 48 50 51 53 53 53 53 53 51 50 51 51 51 52 51 52 52 53 53 53 52 51 51 51 51 50 49
52 53 54 55 55 56 55 55 55 55 55 54 53 52 52 52 53 54 55 55 54 54 53 52 53 53 54 56 56 54 54 54 55 53 49 46 46 45 44 45 43 41 42 42 42 43 43 42 43 44 46 49 51 52 53 54 54 52 52 52 51 52 53 54 55 55 55 54 52 51 52 54 54 54 54 54 55 55 55 55 54 53 52 52 52 51 50
52 53 53 53 53 53 52 50 50 49 50 50 49 48 47 47 48 51 53 53 54 56 56 56 56 55 56 57 56 55 54 54 55 54 51 49 48 48 47 46 45 43 43 43 43 44 44 44 45 45 45 46 48 50 52 53 54 53 54 54 54 54 55 55 55 56 56 55 54 53 54 56 56 55 56 57 57 57 57 56 55 54 54 53 52 51 52
50 49 49 48 47 47 46 44 43 43 43 44 44 43 41 40 41 45 48 49 52 54 54 56 57 57 57 58 56 55 55 55 56 56 54 51 50 50 49 48 47 45 45 45 44 44 45 46 47 47 46 46 46 47 49 51 52 53 54 55 55 56 57 56 55 56 57 56 56 56 56 56 56 57 58 59 60 60 59 57 56 55 55 54 53 53 54
44 43 42 41 41 41 41 40 39 39 40 40 40 40 38 36 37 39 41 44 47 49 50 53 55 57 58 58 57 57 57 57 58 59 57 54 52 52 51 49 49 48 47 46 46 45 46 47 49 49 48 47 46 47 47 48 50 52 55 56 56 56 57 57 56 56 56 57 58 59 59 59 59 60 61 62 63 62 61 60 58 57 57 56 56 56 57
37 37 37 36 37 37 38 37 36 36 37 37 36 36 35 34 34 35 37 39 42 43 45 49 52 55 57 57 58 59 59 59 60 60 59 56 55 54 53 51 50 50 49 48 47 47 47 48 50 51 50 49 48 48 49 48 49 51 54 55 56 57 58 59 59 58 58 58 59 60 62 62 62 63 64 65 65 65 64 63 61 59 58 59 60 60 61
33 33 33 32 32 33 33 33 33 33 34 34 33 32 31 31 31 32 33 36 37 39 42 45 48 51 54 54 56 59 60 61 61 61 61 59 57 56 55 53 52 51 51 50 49 49 49 49 50 51 51 51 51 50 50 50 49 50 52 54 54 55 58 60 60 60 61 61 60 60 61 61 62 64 65 65 66 66 65 63 61 59 58 59 61 62 63
28 28 28 28 28 28 29 29 29 29 30 31 31 29 28 27 28 29 30 32 34 37 40 41 43 47 49 50 54 57 59 60 62 62 62 61 60 58 57 55 54 53 53 52 52 51 51 50 51 51 52 52 53 53 52 52 52 52 53 53 53 54 56 58 59 60 61 62 61 62 62 61 62 64 64 63 63 63 61 60 59 56 54 55 56 58 60
24 24 24 25 25 25 26 27 27 27 27 28 28 27 26 25 25 26 27 29 31 35 37 37 39 42 44 46 50 53 56 58 60 62 63 62 62 61 60 59 57 56 56 55 54 54 53 53 52 52 53 53 54 55 54 54 54 54 54 55 55 54 55 57 58 58 59 61 61 62 62 62 62 61 60 58 57 57 56 56 56 54 52 51 51 53 54
21 22 23 24 24 24 24 24 25 25 25 25 25 24 24 23 22 23 24 25 28 30 32 34 36 38 39 41 45 48 51 53 56 59 61 62 63 63 63 62 60 59 58 57 57 56 56 56 55 55 54 55 55 55 55 56 56 56 56 56 56 57 57 57 58 58 59 60 60 60 59 58 57 57 56 55 54 54 54 54 54 53 53 51 50 50 51
20 21 22 23 23 24 23 23 23 23 23 23 22 22 21 20 20 20 20 22 24 26 28 31 33 35 36 37 40 43 46 48 51 54 57 60 62 63 64 64 62 61 60 59 59 59 59 59 59 57 57 56 56 56 56 56 56 57 57 57 58 58 58 58 58 58 58 59 59 60 58 56 55 55 56 56 55 55 56 55 54 54 54 53 53 52 51
20 21 22 22 22 23 23 23 22 22 21 21 21 20 19 18 17 17 17 18 20 22 24 26 29 31 32 33 36 38 39 41 46 50 54 57 59 61 62 63 62 61 61 60 60 60 60 61 60 60 59 58 58 58 58 57 57 58 57 58 59 59 59 59 59 58 59 59 60 60 58 56 57 58 58 57 58 58 58 57 57 56 56 56 56 55 53
20 21 21 22 22 22 23 23 23 22 21 21 20 19 17 16 15 14 15 15 17 18 20 22 25 27 28 29 31 33 35 37 41 46 49 53 55 57 58 60 61 61 61 61 61 61 61 62 62 62 62 61 60 60 60 59 59 58 58 59 60 60 60 61 60 60 61 61 61 61 59 58 59 59 59 59 59 60 60 60 60 60 59 59 59 58 57
20 21 22 22 23 23 23 23 23 23 22 21 20 19 17 16 14 12 12 13 14 15 17 19 20 22 24 26 27 29 32 34 38 42 46 49 52 55 56 58 59 60 60 61 62 62 63 63 64 64 64 64 63 63 62 61 60 59 59 60 61 62 62 62 63 63 63 64 64 63 61 60 60 60 61 61 62 62 62 63 63 63 62 62 62 62 63
20 21 22 23 24 24 24 24 24 24 23 22 21 20 18 17 15 13 11 10 11 12 13 15 17 19 21 22 24 27 29 32 35 39 42 46 49 53 55 57 58 58 59 60 61 62 62 63 65 65 65 65 65 65 64 63 62 61 61 61 62 63 64 64 65 66 66 66 66 66 64 63 62 63 64 64 65 65 65 66 66 65 64 65 66 67 67
21 22 23 24 25 25 25 26 26 25 25 24 23 22 20 18 17 15 12 10 9 9 10 11 13 15 17 19 21 24 26 28 31 35 39 42 46 49 53 55 56 57 57 58 59 60 61 62 64 65 66 66 67 66 65 64 64 63 63 63 64 65 66 66 67 67 67 68 69 68 67 66 65 66 66 67 68 69 69 69 68 67 67 69 70 71 71
21 22 23 24 25 26 26 27 27 27 26 25 25 23 22 21 19 17 15 13 11 9 8 9 10 12 14 16 18 21 23 25 28 31 35 39 43 46 49 52 54 54 55 56 57 58 59 60 62 64 65 66 67 67 67 66 66 65 65 65 66 67 67 68 68 68 68 69 70 70 69 68 68 68 69 70 71 72 72 71 69 70 71 72 73 73 73
21 22 23 25 26 27 28 28 28 28 27 27 26 24 23 22 21 19 17 15 13 11 9 8 8 9 10 12 15 17 20 22 25 28 31 35 39 42 46 48 50 52 53 55 56 57 58 59 60 62 64 65 66 67 67 67 67 67 66 67 68 69 70 70 70 69 69 70 70 70 70 70 70 71 72 72 73 74 74 73 72 73 75 75 75 76 76
21 22 24 25 26 27 28 29 29 29 28 28 27 26 25 24 23 21 20 18 16 14 12 11 9 8 9 10 12 14 16 19 21 24 28 31 35 39 42 45 47 49 50 52 54 55 57 58 59 61 62 64 65 66 67 68 68 68 68 68 69 70 71 72 72 71 71 71 71 71 71 71 72 73 74 75 76 76 76 76 76 76 77 78 78 78 78
21 23 24 25 26 27 27 28 29 29 29 28 27 27 27 26 25 24 22 20 18 16 15 13 12 10 10 10 10 12 14 16 18 20 23 27 30 34 37 41 44 46 48 50 52 54 56 57 59 60 61 62 63 65 66 67 68 68 69 69 70 71 72 73 73 73 73 73 73 73 73 73 73 75 76 77 78 78 78 78 78 78 79 80 80 81 81
21 23 24 25 26 27 27 27 28 28 28 28 27 27 26 26 26 25 24 22 20 18 15 14 13 12 11 11 11 11 12 14 16 18 20 22 25 28 32 35 39 42 45 47 49 51 54 56 57 59 60 61 62 63 64 65 66 68 68 69 70 71 72 73 74 74 74 74 74 74 74 74 74 75 76 78 78 79 79 79 79 79 80 81 82 82 82
21 22 24 25 27 27 27 27 27 27 27 27 27 27 26 26 25 25 25 24 22 20 18 16 14 13 12 12 11 11 12 13 15 16 18 20 22 24 26 29 33 36 39 43 46 48 51 53 55 56 58 59 60 62 63 64 65 66 67 68 69 70 71 72 73 74 75 75 75 75 74 74 75 75 76 77 78 79 79 80 80 80 81 81 82 82 83
21 23 24 25 27 28 28 28 28 28 28 27 27 26 26 26 25 25 25 24 23 22 21 20 18 17 16 15 14 13 13 14 14 15 16 18 20 21 23 26 28 30 33 36 39 43 46 49 51 53 55 56 58 59 61 62 64 64 65 67 68 69 70 71 72 73 74 74 75 75 75 75 75 75 75 76 77 78 79 79 80 80 80 81 81 82 82
22 24 25 26 27 28 29 29 29 28 28 27 26 26 26 26 26 26 25 25 24 23 23 22 22 21 20 19 18 16 15 15 15 15 16 17 18 20 21 23 25 27 29 31 34 36 39 42 45 48 50 52 54 56 58 60 61 63 64 65 66 68 68 69 71 71 72 73 74 74 75 75 75 74 75 75 76 76 77 78 79 79 79 80 80 81 82
22 24 25 27 28 29 29 29 29 29 29 28 27 27 27 27 26 26 26 26 25 24 24 23 23 22 21 21 20 20 19 18 17 16 16 17 17 18 20 22 23 25 26 28 30 32 34 36 38 41 43 46 48 51 53 55 58 60 62 63 64 65 66 67 68 69 69 70 71 72 73 73 74 74 74 74 74 75 76 77 78 79 79 79 80 80 80
21 23 25 26 28 29 30 29 29 29 29 28 28 27 27 27 27 27 27 27 26 25 24 24 23 23 22 22 22 21 21 20 19 19 18 18 17 18 18 20 22 23 25 26 27 28 30 32 34 36 38 40 42 44 47 49 52 54 56 58 60 61 62 64 65 65 66 67 68 69 70 71 72 72 73 73 74 74 75 75 76 77 78 78 78 78 78
22 24 25 26 28 29 29 29 28 28 28 27 27 27 27 27 28 28 28 28 27 26 25 24 23 23 23 23 23 23 22 22 21 21 21 20 20 19 18 19 20 22 23 25 26 26 27 29 30 32 34 36 38 40 43 44 46 48 50 51 53 54 56 58 59 61 62 62 63 65 66 68 69 70 71 71 71 72 72 72 73 73 74 74 75 75 75
24 26 26 27 27 27 27 27 27 27 27 27 27 27 27 28 29 29 29 29 29 28 28 26 25 25 24 24 25 25 25 24 23 22 22 22 22 22 21 20 20 21 22 23 24 25 26 27 28 29 31 32 34 37 39 41 42 44 45 46 47 48 49 51 53 54 56 57 58 59 61 62 63 64 65 65 66 66 67 67 68 68 69 69 70 70 71
25 26 27 27 26 25 24 25 26 27 27 28 28 28 28 28 29 29 30 30 30 30 30 30 28 28 27 26 26 26 27 27 26 24 23 23 23 23 23 22 21 21 22 23 24 24 25 26 27 28 29 30 32 34 35 37 39 40 41 43 44 45 46 48 49 50 52 53 54 55 55 56 57 58 59 59 60 61 61 62 63 63 64 64 64 64 64
25 26 25 25 24 23 24 24 26 27 28 29 29 29 30 30 30 30 31 32 32 33 33 33 32 31 31 30 29 29 28 29 28 27 26 25 24 23 23 23 22 22 23 24 25 24 24 25 26 27 28 29 30 32 33 34 35 36 38 39 41 42 43 44 45 47 48 49 50 51 52 53 54 55 56 56 56 57 58 58 59 60 60 60 60 60 60
24 24 23 22 22 24 25 26 27 27 28 29 30 31 31 32 32 32 33 33 34 34 34 35 35 34 34 34 33 33 32 31 31 30 29 27 26 25 24 24 23 22 22 24 25 26 25 24 25 26 27 28 30 31 32 33 34 34 35 36 37 38 39 40 41 42 43 45 46 47 48 50 51 52 53 53 54 55 56 56 57 57 57 57 57 57 57
22 21 21 21 22 24 26 28 29 30 30 31 32 32 33 33 34 34 35 35 36 36 36 36 36 37 36 36 36 36 35 34 34 33 31 30 29 28 26 26 25 24 23 23 24 25 26 25 25 25 26 28 29 31 32 33 33 33 33 34 35 35 36 37 38 39 40 41 42 43 44 45 47 48 49 50 51 52 53 54 55 55 56 55 55 55 55
20 20 21 22 23 25 27 29 31 32 33 34 34 34 35 36 36 37 37 37 37 38 39 39 39 38 38 38 38 38 37 36 36 35 33 31 30 29 28 27 27 26 25 24 24 25 26 26 25 25 25 26 28 30 32 33 33 33 33 34 34 35 35 35 36 37 37 38 39 39 40 41 42 43 44 46 47 48 49 50 52 53 53 54 54 54 53
20 21 22 23 25 26 28 30 32 33 35 36 36 36 37 37 38 38 39 40 40 40 41 41 41 40 40 40 40 40 39 39 38 36 35 33 31 30 28 27 27 26 26 25 24 25 26 26 26 26 25 25 26 28 31 33 33 33 33 34 35 35 35 35 35 36 36 36 37 37 38 38 39 40 41 42 43 44 45 46 47 48 49 50 50 51 51
20 21 22 24 26 28 29 31 33 34 35 36 37 37 37 38 39 40 41 41 41 42 42 42 42 42 42 42 42 41 41 41 40 38 36 34 32 30 29 28 27 27 26 25 25 25 25 26 26 26 26 26 26 28 30 32 31 31 32 33 34 34 34 35 35 35 35 35 36 36 36 37 37 38 38 39 40 41 42 42 43 44 45 46 46 47 47
21 22 23 25 27 29 31 33 35 36 37 37 38 38 38 39 40 41 42 43 43 44 44 44 44 43 43 43 43 43 42 42 41 39 37 35 33 31 29 28 27 27 26 26 26 26 26 26 26 26 26 26 26 28 30 31 30 30 30 32 33 33 33 34 34 35 35 35 35 35 36 36 36 36 37 37 37 38 39 40 40 41 42 42 43 43 44
22 23 25 27 29 31 33 34 36 38 38 39 39 39 40 41 42 43 44 45 46 46 46 46 46 45 44 44 44 44 43 42 40 39 37 35 34 33 31 29 28 27 26 26 25 26 26 26 25 26 26 25 26 28 30 30 30 29 29 31 32 32 33 33 34 34 34 34 34 35 35 35 35 35 35 36 36 36 37 37 37 38 38 39 40 40 40
24 25 27 29 31 33 35 36 37 38 40 40 41 41 42 43 43 45 46 47 48 48 49 49 48 47 46 45 45 44 42 41 39 38 36 34 33 33 31 30 29 28 27 26 25 25 26 25 25 25 25 24 25 27 29 30 30 29 29 30 31 32 32 32 33 33 34 34 34 34 34 34 34 34 34 34 35 35 35 36 36 36 36 36 36 36 37
26 28 30 32 34 35 36 37 38 39 40 41 42 43 44 45 45 47 48 49 49 51 51 51 50 49 48 47 45 44 42 40 38 36 34 33 32 32 31 29 29 28 27 27 26 25 25 25 25 24 24 23 24 26 27 29 29 29 28 29 30 31 31 31 32 32 33 33 33 32 32 33 33 33 33 33 33 34 34 34 34 35 34 34 33 34 35
28 30 32 34 35 37 37 38 39 40 41 42 43 44 45 46 47 48 49 50 51 53 53 53 51 50 48 47 45 43 41 39 37 34 32 31 31 30 29 28 28 27 27 27 26 25 25 25 25 25 24 23 24 25 26 27 28 28 27 28 29 30 30 30 31 31 31 32 32 32 32 32 32 32 31 31 32 32 32 32 33 33 32 32 32 32 34
31 32 33 35 36 37 38 39 40 41 42 43 44 46 46 47 48 49 51 52 54 55 54 53 51 49 48 47 45 42 40 38 36 34 31 30 29 29 28 27 27 26 26 26 26 25 25 25 25 25 25 24 24 25 26 27 28 28 27 27 28 29 29 29 30 30 30 31 31 31 30 30 30 30 30 30 31 31 31 31 31 31 30 30 30 31 33
34 34 35 36 37 38 38 39 40 42 43 44 46 47 47 48 49 50 52 54 55 56 55 53 50 48 47 45 43 40 39 37 36 34 31 29 28 27 26 26 25 25 24 24 24 25 25 25 25 25 25 25 25 25 27 28 28 28 27 27 28 29 29 29 29 29 29 29 30 30 29 29 29 29 29 29 29 29 29 29 29 29 28 28 28 30 31
35 36 36 37 38 38 39 40 42 43 44 45 47 48 48 48 49 51 53 55 56 56 55 53 50 47 46 44 41 38 36 35 34 32 30 28 26 25 25 24 24 23 23 24 24 25 25 26 26 25 25 25 26 26 27 28 28 28 27 27 28 29 29 29 29 29 28 28 29 29 29 28 27 27 28 28 28 28 28 28 28 27 26 26 27 29 30
35 37 37 38 39 40 41 42 44 45 45 47 48 49 49 49 50 52 54 55 56 56 55 52 49 46 45 44 41 38 36 34 32 30 29 27 25 25 24 24 23 23 23 24 24 25 26 27 28 27 26 27 27 27 27 28 29 29 28 27 28 29 29 29 29 28 28 28 28 28 28 27 26 26 27 27 27 27 27 27 27 26 25 25 26 27 28
37 38 39 39 40 41 43 44 46 46 47 48 49 49 49 49 51 53 54 55 55 55 54 52 48 45 44 42 40 38 36 34 32 30 28 27 25 24 24 24 24 24 25 26 26 26 27 28 29 29 29 29 28 28 28 29 30 29 28 27 27 28 29 29 29 28 28 28 28 28 28 27 26 26 26 26 26 26 26 26 26 25 24 24 24 25 26
39 40 41 41 42 43 45 46 47 47 48 49 50 50 49 49 51 53 55 55 55 55 54 52 49 45 42 41 39 36 34 33 32 31 29 28 27 27 26 26 26 26 28 29 29 29 29 30 31 31 31 31 30 29 29 29 30 30 28 27 27 28 28 28 28 28 28 28 27 27 27 27 27 26 26 26 26 26 26 26 26 25 24 23 24 24 25
41 41 42 43 43 45 47 48 48 48 49 50 50 50 50 50 51 53 55 55 55 55 54 53 51 47 43 40 37 35 33 32 32 31 30 30 30 31 30 29 29 29 30 32 32 31 31 31 32 32 32 32 32 30 29 29 30 30 29 27 26 27 27 27 27 28 28 28 27 27 27 27 27 26 25 25 26 26 25 25 25 25 24 23 23 23 24
43 43 43 44 46 47 49 49 49 49 50 50 50 50 50 50 52 53 54 54 54 53 52 52 51 49 45 41 38 34 32 31 31 30 30 30 31 32 32 32 32 32 32 34 35 34 33 32 32 32 32 31 31 31 29 28 28 29 29 28 27 26 27 27 27 27 27 27 27 27 27 27 27 26 26 25 25 25 25 25 25 25 24 23 22 22 23
44 44 45 46 48 49 51 52 51 50 50 50 50 50 50 51 52 54 54 54 53 51 51 51 50 48 45 42 38 36 33 32 31 30 29 29 29 31 32 32 32 33 33 34 35 34 33 32 31 31 31 30 30 30 30 29 28 28 28 28 27 27 27 27 27 27 27 27 27 27 27 27 27 27 26 26 25 25 24 24 24 24 24 23 22 22 22
46 46 46 48 49 51 53 54 53 52 51 51 50 50 51 51 52 53 53 52 51 49 49 49 49 48 45 42 39 36 35 34 32 31 30 29 29 30 31 32 32 33 34 34 34 33 32 31 31 30 30 29 29 30 30 29 28 27 27 28 27 27 27 27 27 27 27 27 27 27 27 27 27 27 26 26 26 25 24 24 24 24 24 23 23 22 22
47 47 48 50 51 52 54 55 55 54 53 52 51 51 51 51 52 52 52 50 48 47 47 48 48 47 45 43 39 36 34 34 34 33 31 29 29 30 31 32 32 33 34 35 34 33 31 30 30 30 29 29 29 29 29 29 29 28 27 27 27 27 27 27 26 26 26 26 27 27 27 27 27 27 26 26 26 25 25 24 24 24 24 24 23 22 22
49 49 50 51 52 52 54 55 55 55 54 53 52 52 52 52 52 52 52 49 48 47 47 48 48 47 45 43 40 38 35 35 35 34 32 29 28 29 31 31 32 33 34 35 35 33 32 30 30 30 29 29 29 29 29 29 29 28 28 27 27 26 26 27 27 26 26 26 27 27 27 27 27 27 26 26 26 26 25 25 24 24 23 23 23 23 22
Wind_Direction
287 287 286 286 285 284 283 282 281 280 278 276 273 271 270 268 265 262 260 258 256 255 253 252 250 249 249 250 250 250 251 252 252 252 252 252 252 251 251 250 249 249 247 246 246 245 244 244 245 244 243 243 243 242 242 244 245 245 245 245 245 246 247 248 249 249 248 249 248 249 251 252 251 252 252 253 253 254 254 255 254 255 256 257 257 256 256
288 287 286 286 285 285 284 283 282 281 280 278 275 272 270 268 266 263 261 259 257 255 253 250 248 247 246 247 247 247 247 249 251 251 250 250 249 248 248 248 247 246 246 244 243 243 243 243 244 243 243 242 243 243 243 244 244 244 244 244 244 245 246 247 249 250 250 250 250 250 251 252 252 252 252 253 253 253 253 253 253 254 254 255 256 257 257
288 287 287 287 287 286 286 285 284 283 282 280 278 275 271 268 265 263 261 259 257 254 252 249 247 245 245 245 246 246 247 248 250 250 249 248 247 247 246 247 247 245 245 244 241 240 241 241 242 242 241 241 242 242 242 242 243 243 244 244 244 244 245 246 248 251 251 251 251 250 251 252 253 253 253 253 253 253 252 252 252 253 253 254 255 256 256
289 289 289 289 289 289 289 288 287 286 285 283 281 278 275 271 266 263 261 258 256 254 252 250 249 247 246 245 245 245 246 246 248 249 248 247 246 246 246 246 246 245 245 244 242 240 239 240 241 241 241 241 241 241 241 240 241 242 243 244 244 244 246 246 247 250 253 253 252 251 250 252 254 254 254 253 253 252 252 253 253 253 254 254 254 255 256
292 292 293 294 294 293 293 292 291 290 288 286 284 282 279 274 269 264 261 257 255 254 251 250 249 247 246 244 244 244 244 244 245 246 247 245 245 245 245 244 245 245 245 244 244 242 239 239 240 241 241 240 241 241 241 240 239 240 241 241 242 244 246 247 247 249 252 254 254 252 251 250 251 253 254 255 255 255 254 254 254 254 255 256 255 255 256
297 297 297 297 296 296 296 295 294 292 290 288 286 284 282 278 272 267 262 258 255 253 250 248 247 246 245 243 242 242 242 242 244 245 246 245 244 244 244 244 244 245 245 245 244 243 241 239 239 241 241 241 240 240 241 241 239 240 241 241 240 242 244 245 245 246 248 250 252 254 253 252 252 252 254 256 257 257 257 257 256 256 256 257 257 257 257
301 301 300 300 299 299 299 299 298 296 295 292 290 288 285 280 275 269 264 260 257 254 250 247 246 245 244 243 241 240 240 240 242 243 245 245 245 244 244 244 243 244 245 245 245 244 243 241 241 241 241 241 241 241 241 242 241 240 242 243 241 241 243 244 245 246 246 247 249 251 253 254 254 254 254 256 258 259 261 261 261 259 257 256 256 256 256
305 306 306 306 305 305 305 305 303 303 301 299 297 294 290 284 278 272 266 262 258 255 252 249 246 245 244 242 241 240 239 238 239 241 242 243 244 244 244 244 243 243 244 244 245 245 245 243 242 242 242 241 242 242 242 242 242 241 242 243 243 243 243 244 245 246 246 247 247 248 250 251 253 255 256 258 260 262 264 264 264 262 259 256 255 255 255
315 317 318 316 315 315 314 312 310 309 307 304 302 300 295 290 283 276 270 264 259 256 254 252 249 246 244 242 241 240 239 238 237 238 240 241 242 243 243 243 242 242 242 243 244 245 245 244 243 243 242 242 241 241 242 242 242 243 243 243 244 243 243 244 245 246 247 248 248 249 250 251 253 257 259 260 261 262 263 263 264 263 261 258 255 254 253
328 330 330 328 327 326 324 321 318 317 315 312 309 306 302 297 289 281 274 268 262 258 256 254 251 248 245 242 241 241 240 240 238 238 239 240 240 241 242 242 241 241 241 241 241 242 243 244 243 242 242 242 242 242 242 242 243 243 244 245 246 246 245 245 246 247 249 251 252 253 253 254 256 259 261 261 261 261 260 260 260 261 261 259 256 254 252
337 338 338 337 336 334 332 329 326 325 323 320 317 313 309 304 297 288 280 273 267 262 258 254 251 249 246 243 241 240 240 240 239 239 239 240 240 241 242 243 242 242 242 242 242 243 243 244 244 244 243 242 243 243 243 243 244 244 245 246 247 248 249 249 249 249 251 253 254 256 257 258 260 261 261 262 262 262 261 261 260 260 261 260 259 257 255
342 343 343 342 342 342 340 339 336 334 332 329 326 323 319 314 306 296 287 279 272 266 261 257 254 252 249 245 242 241 239 238 238 238 239 240 241 242 243 244 244 243 243 243 244 244 245 246 247 247 246 244 243 243 243 243 244 244 246 247 248 250 251 252 253 253 254 254 255 256 258 259 260 260 261 262 263 264 265 265 266 266 265 265 263 262 259
347 347 347 346 347 348 349 348 347 344 342 341 338 335 332 327 318 307 297 287 279 272 266 262 258 256 253 248 244 242 238 235 235 236 237 239 241 243 244 245 246 245 245 244 244 244 245 246 247 247 247 247 246 245 245 245 245 245 246 247 248 249 250 252 253 254 254 255 256 256 257 257 258 260 261 262 263 264 265 266 267 267 268 268 268 268 266
352 352 351 351 352 353 355 355 355 354 352 350 348 346 343 340 334 323 311 299 290 281 273 267 262 258 255 251 246 242 237 234 234 235 235 236 238 240 242 243 245 245 245 245 245 244 244 245 245 246 247 248 248 247 247 247 247 247 247 247 248 249 250 251 252 253 254 255 256 256 257 257 258 259 260 261 261 262 263 264 265 266 267 268 268 268 268
357 357 356 356 357 357 358 359 359 360 359 358 357 355 353 351 348 342 331 317 303 292 282 273 266 261 256 252 248 243 239 235 234 236 237 236 236 237 239 240 242 243 244 244 245 245 244 245 245 246 247 247 248 248 248 248 248 247 247 248 248 249 250 251 251 252 254 255 256 256 257 257 257 257 258 259 260 260 261 261 262 263 264 265 265 265 265
0 0 360 359 360 0 1 1 2 3 3 3 3 3 1 360 358 356 351 341 327 310 295 283 273 266 260 255 251 247 243 238 235 235 237 238 238 238 238 239 241 242 243 243 244 244 245 245 246 247 247 248 248 249 249 249 249 249 248 248 249 249 250 251 251 252 253 254 255 256 256 256 257 257 258 259 259 259 260 260 261 262 263 263 263 263 264
2 2 2 1 1 1 1 2 3 4 5 5 6 7 8 6 5 3 0 356 351 339 321 303 288 276 267 261 256 252 248 244 239 237 238 239 240 241 241 241 241 242 243 244 245 245 246 246 246 246 247 248 249 249 249 249 249 250 249 249 250 250 251 251 252 252 252 253 254 256 257 257 258 258 258 258 259 260 261 262 262 263 262 262 263 264 265
3 3 2 2 1 1 1 1 2 3 5 5 6 8 10 10 10 8 6 2 360 357 349 335 314 295 280 270 263 258 254 249 245 241 240 241 242 243 244 244 243 243 243 244 245 246 247 247 247 247 248 248 249 250 250 250 250 250 250 250 250 251 251 251 252 252 252 253 254 255 256 256 257 258 258 258 259 260 261 261 262 262 262 263 264 264 265
4 3 3 2 2 1 1 0 0 1 2 4 5 6 8 9 11 11 9 6 3 1 360 355 343 325 305 288 276 268 262 258 253 248 244 243 243 244 246 247 247 246 245 245 245 246 247 247 248 248 248 249 249 250 251 252 252 252 251 251 251 252 252 253 253 253 253 253 253 254 254 255 255 256 256 257 258 258 259 260 260 261 262 263 264 265 266
3 3 2 2 2 1 1 0 359 359 360 1 3 5 6 7 8 8 8 7 6 6 3 359 354 346 333 316 300 286 276 269 264 259 254 250 247 246 246 248 249 249 249 248 247 247 247 248 248 249 249 249 250 250 251 252 252 253 253 253 253 253 254 255 255 255 255 255 255 254 254 255 255 255 256 257 258 258 259 260 260 261 262 263 264 265 266
2 2 1 0 0 0 0 360 359 359 359 359 1 3 5 5 5 5 4 4 4 5 4 2 359 354 346 335 321 308 295 284 276 270 265 260 256 253 250 249 249 250 250 250 250 250 249 249 249 249 250 250 251 251 252 252 253 253 254 254 254 255 255 256 257 257 257 257 257 257 256 256 256 256 257 258 259 259 260 261 261 262 262 263 264 265 266
359 360 360 359 359 359 359 359 359 359 359 359 359 1 2 3 3 4 3 1 360 359 359 360 359 357 352 345 333 321 310 299 290 282 275 270 266 262 259 255 253 252 251 251 251 251 251 251 251 251 251 251 251 252 252 253 253 254 254 255 255 255 256 256 257 258 258 259 259 259 259 258 258 258 258 258 259 260 261 261 262 262 262 263 263 264 265
356 357 357 357 357 357 357 358 358 358 358 358 358 358 359 359 0 1 1 360 358 357 356 356 355 354 351 347 341 331 321 310 300 292 286 280 275 270 266 264 261 258 256 254 253 252 252 252 253 254 254 254 253 253 253 254 254 254 254 255 255 255 256 256 257 257 258 259 260 260 260 260 260 260 259 259 260 261 261 262 262 262 263 263 264 264 265
353 353 353 354 355 355 355 355 355 356 356 356 356 356 356 357 358 358 358 357 357 357 356 355 354 351 348 344 340 335 328 319 309 300 292 287 283 279 274 270 267 264 262 260 258 256 255 254 254 254 255 255 255 255 255 255 256 256 256 256 256 256 256 256 257 257 258 258 259 260 261 261 261 261 261 261 261 261 262 262 263 263 263 263 264 264 265
352 351 350 351 351 351 351 352 352 353 353 354 355 355 355 355 355 355 355 355 355 355 355 353 352 350 346 343 339 334 328 322 314 306 298 291 286 282 279 276 273 270 267 264 263 261 260 259 258 257 257 256 256 256 256 256 256 256 257 257 257 257 258 258 258 258 259 259 260 261 261 262 262 263 263 263 263 262 262 263 263 263 263 263 263 263 263
349 348 347 347 347 348 348 349 350 352 353 353 354 354 354 353 353 352 352 352 353 353 353 351 349 347 346 343 340 335 328 322 316 311 305 299 291 285 281 279 277 274 272 269 267 266 264 263 262 261 260 260 259 259 258 257 257 256 257 257 258 258 259 260 261 261 261 261 262 262 263 263 264 264 264 264 264 264 263 263 263 263 264 264 264 264 264
346 345 345 345 345 346 347 349 351 353 353 354 353 353 353 353 352 351 351 351 352 352 351 349 348 346 344 343 340 336 332 327 321 315 310 305 299 293 287 283 281 278 276 274 272 270 268 267 266 264 264 263 262 261 261 260 260 259 259 259 259 260 261 261 262 263 263 263 263 263 263 263 263 263 263 264 264 264 264 264 264 264 265 265 265 266 266
343 342 343 343 344 346 348 351 354 355 355 355 354 352 352 351 351 350 350 350 350 349 348 347 346 344 343 342 340 337 334 330 326 319 313 308 304 300 295 291 288 285 281 278 275 273 271 269 268 267 266 265 264 264 263 263 263 262 262 262 262 262 261 261 262 262 262 263 262 262 262 262 263 263 264 265 265 266 266 266 266 266 266 266 266 266 266
340 340 341 342 344 347 351 354 358 359 359 358 356 354 353 351 350 349 348 348 347 347 346 344 342 342 341 340 338 336 334 330 327 323 317 311 306 302 299 296 294 291 288 284 281 277 275 273 271 269 268 267 266 265 265 264 264 264 264 264 263 262 261 261 261 262 262 263 263 264 264 265 265 266 266 266 266 267 267 267 267 268 267 267 267 267 267
337 338 340 342 344 347 352 356 359 0 360 358 357 356 354 353 351 349 348 346 345 345 344 342 341 340 339 338 336 335 333 330 327 325 321 315 309 303 300 297 295 294 293 292 289 285 281 278 275 273 270 269 268 267 266 266 266 265 265 265 265 265 265 264 264 265 265 265 266 266 267 267 267 267 267 267 268 268 268 268 268 268 268 268 268 269 269
338 341 345 347 348 350 352 354 355 356 356 355 354 353 352 351 350 349 348 346 344 343 342 341 340 339 338 337 335 333 332 330 328 325 322 318 313 307 302 299 295 293 292 292 291 289 287 283 280 278 275 273 271 270 269 268 267 267 266 267 267 267 268 267 267 266 266 266 266 266 266 266 266 266 267 267 268 268 268 268 268 268 269 269 269 269 269
342 347 350 352 352 352 351 351 351 351 350 350 348 348 347 347 347 346 345 345 344 343 341 340 340 338 337 336 334 331 330 330 328 325 323 320 316 311 307 303 299 295 292 291 290 290 288 286 283 281 279 277 276 275 273 272 270 269 269 269 269 268 269 269 269 269 268 268 268 267 267 267 267 267 268 268 268 268 268 269 269 269 269 269 270 270 270
346 349 350 350 351 351 350 348 348 348 347 346 344 343 343 343 343 343 342 342 342 341 340 339 339 338 336 335 332 330 329 328 326 324 322 320 317 313 309 306 302 299 295 292 291 290 290 289 287 284 282 279 278 277 276 275 274 274 273 273 272 271 271 271 271 271 271 271 270 271 271 270 270 270 270 270 269 269 269 269 269 269 269 269 269 269 270
346 348 348 348 348 348 348 347 346 345 345 344 341 340 339 339 339 339 338 338 338 338 338 338 338 337 336 334 332 329 328 327 325 323 321 319 316 313 310 306 303 300 297 294 292 291 291 291 290 288 286 283 280 277 276 275 275 275 274 274 273 273 273 274 274 274 274 274 274 274 274 274 274 274 274 273 273 272 271 270 270 269 269 269 269 269 269
341 343 344 343 342 342 344 344 343 342 342 341 338 336 334 334 335 335 335 335 336 336 336 336 336 336 335 333 331 329 328 326 324 322 321 319 316 313 310 307 304 301 298 296 293 292 291 291 291 291 289 287 284 280 278 277 276 276 275 274 274 274 274 274 274 275 275 275 276 276 276 276 276 276 276 276 276 276 275 274 273 273 272 271 270 270 270
336 337 338 338 338 338 340 341 340 339 339 338 335 333 332 331 332 333 333 333 334 334 334 335 334 334 334 333 330 328 327 326 323 322 320 319 316 314 311 308 305 302 300 297 295 293 292 292 293 292 291 289 287 284 282 280 280 279 279 278 277 277 276 276 276 277 277 278 278 279 279 279 279 279 279 279 279 278 278 277 276 276 275 274 273 272 271
332 332 333 334 334 335 336 337 337 336 336 334 332 331 330 330 331 332 332 333 333 333 333 333 333 333 333 331 329 327 326 324 322 321 320 318 316 314 312 309 306 303 300 297 295 294 293 293 293 293 292 291 289 286 285 284 284 284 282 281 280 280 279 279 278 278 279 279 279 280 281 281 281 282 283 283 283 282 281 280 279 278 276 275 274 273 272
328 328 329 331 331 331 332 333 333 333 332 331 330 330 330 330 331 331 332 333 333 333 333 333 332 332 331 330 328 326 325 323 321 320 319 318 315 313 311 309 306 303 301 298 295 294 293 293 293 292 291 290 289 287 287 287 287 287 285 284 282 281 281 280 279 279 279 279 280 280 281 282 283 285 286 286 287 286 286 285 283 281 279 277 276 274 272
325 325 326 327 327 327 328 329 330 331 330 330 330 330 330 330 331 332 332 333 333 333 332 332 331 331 330 329 328 326 324 322 321 320 319 317 314 312 310 308 306 303 301 299 297 296 295 295 294 293 291 290 289 288 288 289 289 289 289 287 286 285 283 282 281 281 281 281 282 282 283 284 285 286 287 288 288 288 288 287 286 285 283 281 279 276 274
322 322 323 324 324 324 326 328 329 330 330 329 329 329 330 330 330 331 332 333 333 333 332 331 330 330 330 329 328 326 324 322 321 321 320 318 314 311 309 307 305 303 302 301 301 300 299 297 296 295 294 293 292 291 290 290 291 291 291 290 289 287 286 285 283 283 282 283 283 284 284 285 286 287 288 288 289 289 289 289 288 287 285 284 281 278 276
320 320 320 321 322 324 327 329 329 329 329 329 329 329 329 329 329 331 332 333 333 332 330 329 330 330 330 329 328 326 325 323 322 322 321 318 314 311 309 307 305 305 304 303 303 302 300 299 298 297 297 297 297 296 295 295 294 295 295 294 292 290 288 287 286 285 284 284 284 284 284 285 286 287 288 289 290 290 291 290 290 288 287 285 282 279 277
317 318 319 320 323 326 328 329 328 328 328 328 329 329 328 328 329 331 332 332 331 330 329 329 330 330 330 329 328 328 326 324 323 322 321 318 315 312 310 308 307 306 306 305 303 302 301 300 299 299 300 300 300 300 299 299 298 298 299 298 296 294 292 291 290 288 287 286 286 285 285 285 286 287 289 290 292 292 293 293 292 291 289 286 282 279 279
315 316 318 321 324 326 328 328 327 326 327 328 328 327 327 327 329 331 332 331 331 330 329 329 330 331 330 329 329 329 328 325 323 321 320 319 317 315 312 310 309 309 308 306 305 303 303 302 302 302 303 303 302 302 302 301 300 301 301 301 299 297 296 294 293 292 290 288 287 286 286 286 287 288 290 291 292 293 294 295 294 293 291 288 284 281 281
314 315 318 321 324 325 325 325 324 324 325 327 326 325 326 327 330 331 331 330 330 329 328 329 331 332 331 330 330 330 328 325 323 321 322 322 320 318 316 315 313 312 310 308 306 305 305 304 304 305 305 305 305 305 304 303 302 302 303 302 300 298 297 297 296 295 293 291 289 289 288 288 289 290 290 291 293 294 295 295 295 295 293 290 285 283 283
313 316 319 322 323 322 322 322 322 322 324 325 324 324 326 328 330 330 329 329 330 329 328 329 331 333 333 332 331 331 329 326 323 323 324 324 323 320 319 317 316 315 312 309 307 307 307 306 306 307 308 307 307 307 306 304 303 303 304 303 301 299 298 299 298 297 295 294 292 292 291 291 291 291 291 292 293 295 296 296 296 296 295 292 288 285 284
314 317 320 321 321 320 319 320 320 322 323 323 322 323 325 328 329 329 329 329 330 329 328 329 331 333 333 332 332 331 328 325 323 324 325 325 324 322 320 319 318 316 313 311 310 310 310 309 308 309 309 309 309 309 308 305 304 303 303 303 302 300 299 299 298 297 296 295 295 294 293 293 292 292 292 293 294 295 296 297 297 297 296 294 290 287 286
314 317 320 320 319 318 318 318 319 321 321 321 321 323 325 327 329 329 329 329 329 329 328 328 330 331 333 333 332 330 327 324 322 323 324 325 324 322 322 321 320 317 314 312 311 312 311 310 309 309 309 309 309 309 308 307 305 304 304 304 303 301 299 299 298 297 297 296 295 294 293 293 293 293 293 293 293 294 295 296 297 297 297 296 292 289 287
314 317 318 318 317 316 316 317 318 319 319 319 320 322 325 327 328 329 328 328 328 328 328 328 328 329 331 332 331 329 326 323 320 320 322 323 323 321 320 320 318 316 314 311 310 311 311 310 309 309 309 309 309 310 309 308 307 306 306 306 304 302 300 299 298 297 296 295 295 294 294 293 293 294 293 293 293 293 294 296 296 297 297 296 294 291 289
313 315 316 315 315 315 316 316 317 318 318 318 319 321 324 326 328 328 327 327 327 327 327 327 326 326 328 329 329 327 324 321 318 317 318 319 318 316 315 315 314 313 311 309 308 309 310 310 310 310 310 310 310 310 310 309 309 308 307 306 305 304 301 299 298 297 296 295 295 294 294 293 293 293 293 292 292 293 294 295 296 296 296 296 295 293 290
311 313 313 314 314 315 315 316 316 317 316 316 318 320 323 325 327 326 325 326 326 327 327 326 325 325 326 327 327 325 322 319 316 315 315 315 314 312 312 312 312 311 309 308 307 308 309 309 309 310 310 311 311 310 310 310 310 309 308 307 306 304 302 300 298 297 296 295 294 294 293 293 292 292 292 292 292 292 293 294 294 295 295 295 295 294 292
310 312 313 313 314 314 314 315 315 315 315 315 318 320 322 324 325 325 324 324 326 326 326 324 324 324 324 324 324 323 321 317 314 313 313 313 312 310 310 311 312 311 309 308 307 308 309 309 308 309 310 310 310 310 310 310 310 310 308 307 306 305 303 301 299 298 296 294 293 292 291 291 291 291 291 291 292 292 292 292 292 293 293 294 294 294 293
311 312 312 312 313 313 313 314 314 314 314 316 318 320 322 324 325 324 324 324 326 327 326 325 323 322 322 322 322 322 320 316 313 312 312 313 312 311 311 311 312 311 310 308 307 308 308 308 307 308 309 309 309 310 310 310 310 310 309 308 306 306 304 303 301 299 297 294 292 291 290 290 290 290 290 291 290 291 291 291 290 290 291 292 293 294 293